Content
SEND FEEDBACK

Daily
Averages
Monthly
Summary
United States of America

YARMOUTH, MASSACHUSETTS


Home > North America > United States > Massachusetts
Elevation: 52 feet     Latitude: 41 40N     Longitude: 070 16W

WEATHER
 
SELECT A DAY
Number of Records: 210,161;   Date Range: 1/1/95 - 10/21/14
 
SHARE

PRINT THIS DATA

[ ← Previous Day ]
WEATHER ALMANAC - MARCH 3, 2013
[ Next Day → ]
[ °C ]   °F
Weather ElementAverageHighLow
Temperature37.9 °F42.8 °F (3:10 pm)35.1 °F (11:56 pm)
Dewpoint29.8 °F33.1 °F (1:56 am)28 °F (5:56 am)
Humidity73.1 %86 % (1:56 am)61 % (3:10 pm)
Barometer29.58 in29.61 in (1:03 am)29.54 in (2:35 pm)
Wind Speed4.9 mph9.2 mph (1:03 am)
Wind Gust17.3 mph (1:03 am)
Weather ElementAverage
Visibility10 mi
Wind DirectionSSW (215.8 °)

Weather ElementTotal
Precipitation---
Heating Degree Days26.1 (Base 65)
Averaged from 31 records on March 3, 2013
WEATHER CONDITIONS BREAKOUT
WIND DIRECTION BREAKOUT
WEATHER BY HOUR - MARCH 3, 2013
[ °C ]   °F
Local TimeTemperatureDewpointHumidityBarometerVisibilityWind DirectionWind SpeedGust SpeedPrecipitationEventsConditions
1:03 AM37.4 °F32.0 °F81 %29.61 in10.0 miNNW (330°)9.2 mph17.3 mphOvercast
1:56 AM37.0 °F33.1 °F86 %29.60 in10.0 miNNW (340°)6.9 mph0.00 inOvercast
2:36 AM37.4 °F32.0 °F81 %29.59 in10.0 miNNW (340°)6.9 mphOvercast
2:56 AM37.9 °F30.9 °F76 %29.59 in10.0 miNNW (340°)6.9 mphOvercast
3:56 AM37.0 °F30.0 °F76 %29.59 in10.0 miNW (320°)5.8 mphOvercast
4:37 AM37.4 °F28.4 °F70 %29.59 in10.0 miNNW (340°)5.8 mphOvercast
4:56 AM37.0 °F28.9 °F73 %29.60 in10.0 miNNW (330°)4.6 mphOvercast
5:56 AM36.0 °F28.0 °F73 %29.60 in10.0 miNW (310°)3.5 mphOvercast
6:56 AM36.0 °F28.0 °F73 %29.61 in10.0 miWNW (300°)4.6 mphOvercast
7:56 AM36.0 °F28.0 °F73 %29.61 in10.0 miNNW (330°)5.8 mphOvercast
8:56 AM37.0 °F28.0 °F70 %29.61 in10.0 miNorth (350°)8.1 mphOvercast
9:56 AM37.9 °F28.0 °F68 %29.60 in10.0 miNNW (340°)5.8 mphOvercast
10:56 AM39.0 °F28.9 °F67 %29.59 in10.0 miCalmOvercast
11:56 AM41.0 °F30.0 °F65 %29.58 in10.0 miNNE (20°)4.6 mphOvercast
12:56 PM41.0 °F30.0 °F65 %29.56 in10.0 miNNE (20°)4.6 mphOvercast
1:56 PM41.0 °F30.0 °F65 %29.55 in10.0 miCalmOvercast
2:35 PM41.0 °F30.2 °F65 %29.54 in10.0 miSSW (210°)6.9 mphOvercast
2:56 PM41.0 °F30.0 °F65 %29.55 in10.0 miSW (230°)4.6 mphOvercast
3:10 PM42.8 °F30.2 °F61 %29.54 in10.0 miNNE (20°)6.9 mphOvercast
3:56 PM39.9 °F30.0 °F68 %29.55 in10.0 miNorth (350°)3.5 mphOvercast
4:56 PM39.0 °F30.9 °F73 %29.56 in10.0 miNNE (20°)4.6 mphOvercast
5:56 PM37.9 °F30.9 °F76 %29.57 in10.0 miCalmOvercast
6:56 PM37.0 °F28.0 °F70 %29.57 in10.0 miCalmOvercast
7:56 PM37.0 °F28.9 °F73 %29.57 in10.0 miCalmOvercast
8:56 PM37.0 °F28.9 °F73 %29.57 in10.0 miCalmOvercast
9:56 PM37.0 °F30.0 °F76 %29.57 in10.0 miWNW (290°)3.5 mphOvercast
10:35 PM37.4 °F30.2 °F75 %29.56 in10.0 miNW (320°)8.1 mphOvercast
10:56 PM36.0 °F30.9 °F82 %29.57 in10.0 miNW (310°)6.9 mphOvercast
11:37 PM35.6 °F30.2 °F81 %29.56 in10.0 miNW (310°)8.1 mphOvercast
11:48 PM35.6 °F30.2 °F81 %29.56 in10.0 miNW (310°)9.2 mphOvercast
11:56 PM35.1 °F30.9 °F85 %29.57 in10.0 miNW (310°)6.9 mphOvercast
Hourly data recorded from KHYA, located miles away from Yarmouth, Massachusetts







STORIES FROM OUR PARTNERS